Location: Bucksport
(44.6167°N, 68.8000°W)
Time: 10:37:05
(UTC-05:00)

N. Korean satellite - Pass Details

Date: 22 October 2019
Orbit: 456 x 506 km, 97.2° (Epoch: 21 November)

Event Time Altitude Azimuth Distance (km) Brightness Sun altitude
Rises 06:12:56 0° 17° (NNE) 2,566 10.4 -8.9°
Reaches altitude 10° 06:15:03 10° 24° (NNE) 1,688 9.5 -8.5°
Maximum altitude 06:18:34 47° 99° (E) 661 7.8 -7.9°
Drops below altitude 10° 06:22:07 10° 175° (S) 1,698 9.5 -7.3°
Sets 06:24:15 0° 181° (S) 2,582 10.4 -6.9°
